Location: Dreilärchen
(47.9312°N, 8.6113°E)
Time: 21:19:55
(UTC+00:00)

Cosmos 2366 rocket - Pass Details

Date: 26 May 2022
Orbit: 955 x 997 km, 82.9° (Epoch: 02 July)

Event Time Altitude Azimuth Distance (km) Brightness Sun altitude
Rises 02:37:05 0° 350° (N) 3,646 7.5 -8.4°
Reaches altitude 10° 02:39:35 10° 351° (N) 2,698 6.8 -8.1°
Maximum altitude 02:45:46 90° 66° (ENE) 967 4.0 -7.3°
Drops below altitude 10° 02:51:57 10° 173° (S) 2,697 6.0 -6.6°
Sets 02:54:27 0° 173° (S) 3,645 6.7 -6.3°
